Location: Carlisle
(34.5501°N, 84.5969°W)
Time: 23:11:26
(UTC+00:00)

Hubble Space Telescope - Pass Details

Date: 01 December 2021
Orbit: 534 x 538 km, 28.5° (Epoch: 18 January)

Event Time Altitude Azimuth Distance (km) Brightness Sun altitude
Exits shadow 10:24:36 32° 173° (S) 931 2.1 -24.7°
Drops below altitude 10° 10:27:52 10° 122° (ESE) 1,774 4.3 -24.1°
Sets 10:30:17 0° 112° (ESE) 2,664 5.7 -23.6°
